Simultaneous Nadir Overpasses (SNOs) Predictions

Prediction of SNOs between GOES-15 and NOAA-20 Satellite Orbit:

Table of predicted SNOs for the next 14.0 days since TLE Epoch: 4/6/2024
Index Date Time (GOES-15) GOES-15 Lat,Lon NOAA-20 Lat,Lon Distance(km) Time Diff (sec)
1 04/06/2024 09:05:14 -0.10, 61.24 0.77, 65.28 459.16 80
2 04/07/2024 21:24:31 0.10, 61.20 0.39, 59.96 140.93 80
3 04/08/2024 21:08:31 0.10, 61.20 -0.60, 64.47 372.35 80
4 04/10/2024 09:27:57 -0.10, 61.26 -0.56, 59.12 243.01 80
5 04/11/2024 09:11:57 -0.10, 61.27 0.43, 63.63 269.82 80
6 04/12/2024 21:31:13 0.09, 61.23 0.72, 58.32 331.51 80
7 04/13/2024 21:15:14 0.10, 61.24 -0.28, 62.83 181.22 80
8 04/15/2024 09:34:38 -0.10, 61.31 -0.94, 57.49 434.68 80
9 04/16/2024 09:18:39 -0.10, 61.32 0.06, 62.00 77.88 80
10 04/18/2024 21:19:15 0.10, 61.30 0.14, 61.21 11.47 80
